| time (UTC) | temp F | wind direction | speed MPH | gust MPH | rain 1hr in | rain 24hr in | rain mn in | humidity % | barometer mb |
| 20260506024031 | 70 | 340 | 3.0 | 8.0 | 0.00 | 0.00 | 0.00 | 70 | 1008.6 |
| 20260506023531 | 71 | 0 | 2.0 | 7.0 | 0.00 | 0.00 | 0.00 | 69 | 1008.5 |
| 20260506023043 | 71 | 29 | 2.0 | 11.0 | 0.00 | 0.00 | 0.00 | 69 | 1008.2 |
| 20260506022532 | 71 | 19 | 3.0 | 11.0 | 0.00 | 0.00 | 0.00 | 69 | 1008.1 |
| 20260506022031 | 71 | 349 | 4.0 | 11.0 | 0.00 | 0.00 | 0.00 | 69 | 1008.1 |
| 20260506021538 | 72 | 20 | 6.0 | 10.0 | 0.00 | 0.00 | 0.00 | 68 | 1007.9 |
| 20260506021033 | 72 | 46 | 3.0 | 7.0 | 0.00 | 0.00 | 0.00 | 69 | 1007.9 |
| 20260506020530 | 73 | 48 | 2.0 | 7.0 | 0.00 | 0.00 | 0.00 | 68 | 1007.4 |
| 20260506020044 | 73 | 49 | 2.0 | 7.0 | 0.00 | 0.00 | 0.00 | 68 | 1007.3 |
| 20260506015532 | 73 | 53 | 3.0 | 7.0 | 0.00 | 0.00 | 0.00 | 67 | 1007.1 |
| 20260506015032 | 73 | 47 | 2.0 | 7.0 | 0.00 | 0.00 | 0.00 | 67 | 1007.3 |
| 20260506014544 | 73 | 328 | 3.0 | 7.0 | 0.00 | 0.00 | 0.00 | 66 | 1007.3 |
| 20260506014031 | 73 | 54 | 1.0 | 5.0 | 0.00 | 0.00 | 0.00 | 66 | 1007.3 |
| 20260506013529 | 74 | 53 | 1.0 | 8.0 | 0.00 | 0.00 | 0.00 | 66 | 1007.3 |
| 20260506013046 | 74 | 37 | 2.0 | 8.0 | 0.00 | 0.00 | 0.00 | 66 | 1007.0 |
| 20260506012530 | 74 | 44 | 2.0 | 8.0 | 0.00 | 0.00 | 0.00 | 65 | 1007.1 |
| 20260506012035 | 74 | 35 | 2.0 | 7.0 | 0.00 | 0.00 | 0.00 | 65 | 1006.8 |
| 20260506011543 | 74 | 0 | 2.0 | 8.0 | 0.00 | 0.00 | 0.00 | 65 | 1006.9 |
| 20260506011032 | 74 | 326 | 1.0 | 8.0 | 0.00 | 0.00 | 0.00 | 65 | 1007.1 |
| 20260506010531 | 74 | 316 | 2.0 | 9.0 | 0.00 | 0.00 | 0.00 | 64 | 1006.8 |
| 20260506010045 | 74 | 330 | 3.0 | 9.0 | 0.00 | 0.00 | 0.00 | 64 | 1006.8 |
| 20260506005532 | 75 | 283 | 3.0 | 8.0 | 0.00 | 0.00 | 0.00 | 63 | 1006.8 |
| 20260506005031 | 75 | 50 | 3.0 | 8.0 | 0.00 | 0.00 | 0.00 | 63 | 1006.7 |
| 20260506004548 | 75 | 53 | 3.0 | 8.0 | 0.00 | 0.00 | 0.00 | 64 | 1006.2 |
| 20260506004032 | 76 | 41 | 2.0 | 6.0 | 0.00 | 0.00 | 0.00 | 64 | 1006.5 |
| 20260506003531 | 76 | 51 | 1.0 | 8.0 | 0.00 | 0.00 | 0.00 | 64 | 1006.5 |
| 20260506003045 | 76 | 39 | 2.0 | 8.0 | 0.00 | 0.00 | 0.00 | 63 | 1006.4 |
| 20260506002532 | 77 | 56 | 3.0 | 10.0 | 0.00 | 0.00 | 0.00 | 63 | 1006.4 |
| 20260506002031 | 77 | 0 | 0.0 | 10.0 | 0.00 | 0.00 | 0.00 | 63 | 1006.2 |
| 20260506001544 | 77 | 335 | 4.0 | 12.0 | 0.00 | 0.00 | 0.00 | 62 | 1006.1 |
| 20260506001030 | 78 | 349 | 4.0 | 14.0 | 0.00 | 0.00 | 0.00 | 61 | 1006.1 |
| 20260506000531 | 79 | 312 | 5.0 | 14.0 | 0.00 | 0.00 | 0.00 | 60 | 1006.0 |
| 20260506000044 | 79 | 16 | 4.0 | 14.0 | 0.00 | 0.00 | 0.00 | 59 | 1005.8 |
| 20260505235531 | 80 | 338 | 3.0 | 14.0 | 0.00 | 0.00 | 0.00 | 59 | 1005.5 |
| 20260505235031 | 80 | 326 | 4.0 | 14.0 | 0.00 | 0.00 | 0.00 | 59 | 1005.5 |
| 20260505234550 | 80 | 20 | 5.0 | 13.0 | 0.00 | 0.00 | 0.00 | 58 | 1005.5 |
| 20260505234032 | 81 | 61 | 4.0 | 13.0 | 0.00 | 0.00 | 0.00 | 58 | 1005.5 |
| 20260505233532 | 82 | 316 | 4.0 | 11.0 | 0.00 | 0.00 | 0.00 | 56 | 1005.5 |
| 20260505233042 | 83 | 46 | 4.0 | 11.0 | 0.00 | 0.00 | 0.00 | 55 | 1005.6 |
| 20260505232531 | 84 | 342 | 5.0 | 11.0 | 0.00 | 0.00 | 0.00 | 54 | 1005.5 |
| 20260505232032 | 85 | 36 | 3.0 | 9.0 | 0.00 | 0.00 | 0.00 | 51 | 1005.2 |
| 20260505231546 | 85 | 319 | 4.0 | 10.0 | 0.00 | 0.00 | 0.00 | 51 | 1005.1 |
| 20260505231031 | 86 | 332 | 5.0 | 10.0 | 0.00 | 0.00 | 0.00 | 50 | 1005.1 |
| 20260505230531 | 86 | 56 | 3.0 | 14.0 | 0.00 | 0.00 | 0.00 | 49 | 1005.1 |
| 20260505230045 | 86 | 46 | 4.0 | 14.0 | 0.00 | 0.00 | 0.00 | 47 | 1004.9 |
| 20260505225532 | 87 | 314 | 5.0 | 14.0 | 0.00 | 0.00 | 0.00 | 46 | 1004.7 |
| 20260505225031 | 87 | 311 | 4.0 | 10.0 | 0.00 | 0.00 | 0.00 | 44 | 1004.6 |
| 20260505224544 | 88 | 21 | 4.0 | 10.0 | 0.00 | 0.00 | 0.00 | 44 | 1004.7 |
| 20260505224032 | 88 | 27 | 5.0 | 10.0 | 0.00 | 0.00 | 0.00 | 42 | 1004.7 |
| 20260505223532 | 90 | 349 | 5.0 | 10.0 | 0.00 | 0.00 | 0.00 | 41 | 1004.7 |
| 20260505223051 | 91 | 15 | 2.0 | 8.0 | 0.00 | 0.00 | 0.00 | 44 | 1004.4 |
| 20260505222533 | 91 | 245 | 1.0 | 8.0 | 0.00 | 0.00 | 0.00 | 44 | 1004.2 |
| 20260505222031 | 92 | 214 | 3.0 | 7.0 | 0.00 | 0.00 | 0.00 | 44 | 1004.3 |
| 20260505221544 | 92 | 264 | 1.0 | 6.0 | 0.00 | 0.00 | 0.00 | 45 | 1004.2 |
| 20260505221028 | 92 | 224 | 1.0 | 9.0 | 0.00 | 0.00 | 0.00 | 43 | 1004.0 |
| 20260505220531 | 92 | 238 | 3.0 | 9.0 | 0.00 | 0.00 | 0.00 | 44 | 1004.1 |
| 20260505220045 | 93 | 264 | 1.0 | 7.0 | 0.00 | 0.00 | 0.00 | 45 | 1004.2 |
| 20260505215532 | 93 | 236 | 1.0 | 10.0 | 0.00 | 0.00 | 0.00 | 45 | 1004.2 |
| 20260505215031 | 92 | 242 | 2.0 | 10.0 | 0.00 | 0.00 | 0.00 | 45 | 1004.3 |
| 20260505214553 | 93 | 226 | 3.0 | 8.0 | 0.00 | 0.00 | 0.00 | 44 | 1004.4 |
| 20260505214032 | 93 | 252 | 0.0 | 7.0 | 0.00 | 0.00 | 0.00 | 46 | 1004.3 |
| 20260505213531 | 93 | 304 | 2.0 | 6.0 | 0.00 | 0.00 | 0.00 | 44 | 1004.3 |
| 20260505213044 | 93 | 0 | 2.0 | 8.0 | 0.00 | 0.00 | 0.00 | 46 | 1004.3 |
| 20260505212531 | 92 | 243 | 3.0 | 9.0 | 0.00 | 0.00 | 0.00 | 47 | 1004.5 |
| 20260505212032 | 91 | 225 | 3.0 | 9.0 | 0.00 | 0.00 | 0.00 | 49 | 1004.4 |
| 20260505211544 | 91 | 248 | 3.0 | 9.0 | 0.00 | 0.00 | 0.00 | 48 | 1004.6 |
| 20260505211029 | 91 | 224 | 3.0 | 9.0 | 0.00 | 0.00 | 0.00 | 48 | 1004.7 |
| 20260505210531 | 91 | 301 | 3.0 | 7.0 | 0.00 | 0.00 | 0.00 | 49 | 1004.7 |
| 20260505210044 | 91 | 264 | 3.0 | 11.0 | 0.00 | 0.00 | 0.00 | 49 | 1004.7 |
| 20260505205533 | 90 | 243 | 4.0 | 11.0 | 0.00 | 0.00 | 0.00 | 50 | 1004.6 |
| 20260505205032 | 91 | 251 | 3.0 | 11.0 | 0.00 | 0.00 | 0.00 | 51 | 1004.8 |
| 20260505204546 | 90 | 181 | 4.0 | 11.0 | 0.00 | 0.00 | 0.00 | 50 | 1004.8 |
| 20260505204031 | 91 | 223 | 2.0 | 10.0 | 0.00 | 0.00 | 0.00 | 51 | 1004.9 |
| 20260505203531 | 90 | 224 | 3.0 | 8.0 | 0.00 | 0.00 | 0.00 | 51 | 1005.0 |
| 20260505203044 | 90 | 231 | 1.0 | 14.0 | 0.00 | 0.00 | 0.00 | 52 | 1005.2 |
| 20260505202531 | 90 | 248 | 5.0 | 14.0 | 0.00 | 0.00 | 0.00 | 52 | 1005.2 |
| 20260505202033 | 90 | 230 | 4.0 | 11.0 | 0.00 | 0.00 | 0.00 | 51 | 1005.2 |
| 20260505201539 | 90 | 219 | 3.0 | 10.0 | 0.00 | 0.00 | 0.00 | 51 | 1005.2 |
| 20260505201032 | 90 | 246 | 2.0 | 11.0 | 0.00 | 0.00 | 0.00 | 50 | 1005.3 |
| 20260505200531 | 90 | 258 | 3.0 | 11.0 | 0.00 | 0.00 | 0.00 | 53 | 1005.3 |
| 20260505200048 | 90 | 218 | 5.0 | 13.0 | 0.00 | 0.00 | 0.00 | 51 | 1005.3 |
| 20260505195534 | 89 | 280 | 3.0 | 13.0 | 0.00 | 0.00 | 0.00 | 53 | 1005.3 |
| 20260505195031 | 90 | 236 | 6.0 | 13.0 | 0.00 | 0.00 | 0.00 | 53 | 1005.4 |
| 20260505194551 | 90 | 198 | 2.0 | 11.0 | 0.00 | 0.00 | 0.00 | 54 | 1005.4 |
| 20260505194028 | 89 | 248 | 5.0 | 11.0 | 0.00 | 0.00 | 0.00 | 53 | 1005.3 |
| 20260505193532 | 89 | 279 | 4.0 | 11.0 | 0.00 | 0.00 | 0.00 | 55 | 1005.5 |
| 20260505193042 | 89 | 247 | 3.0 | 8.0 | 0.00 | 0.00 | 0.00 | 55 | 1005.5 |
| 20260505192533 | 89 | 252 | 3.0 | 10.0 | 0.00 | 0.00 | 0.00 | 54 | 1005.4 |
| 20260505192031 | 88 | 172 | 2.0 | 10.0 | 0.00 | 0.00 | 0.00 | 56 | 1005.4 |
| 20260505191544 | 88 | 188 | 3.0 | 14.0 | 0.00 | 0.00 | 0.00 | 56 | 1005.5 |
| 20260505191035 | 88 | 199 | 3.0 | 14.0 | 0.00 | 0.00 | 0.00 | 56 | 1005.3 |
| 20260505190532 | 87 | 243 | 3.0 | 9.0 | 0.00 | 0.00 | 0.00 | 58 | 1005.4 |
| 20260505190043 | 87 | 235 | 2.0 | 8.0 | 0.00 | 0.00 | 0.00 | 58 | 1005.5 |
| 20260505185532 | 86 | 257 | 3.0 | 13.0 | 0.00 | 0.00 | 0.00 | 58 | 1005.5 |
| 20260505185032 | 86 | 250 | 4.0 | 13.0 | 0.00 | 0.00 | 0.00 | 58 | 1005.5 |
| 20260505184538 | 86 | 243 | 4.0 | 9.0 | 0.00 | 0.00 | 0.00 | 58 | 1005.6 |
| 20260505184031 | 86 | 231 | 1.0 | 8.0 | 0.00 | 0.00 | 0.00 | 60 | 1005.5 |
| 20260505183530 | 86 | 162 | 3.0 | 11.0 | 0.00 | 0.00 | 0.00 | 59 | 1005.6 |
| 20260505183043 | 85 | 174 | 4.0 | 12.0 | 0.00 | 0.00 | 0.00 | 59 | 1005.6 |
| 20260505182530 | 85 | 193 | 5.0 | 12.0 | 0.00 | 0.00 | 0.00 | 60 | 1005.6 |
| 20260505182031 | 86 | 236 | 3.0 | 11.0 | 0.00 | 0.00 | 0.00 | 58 | 1005.7 |
| 20260505181546 | 86 | 299 | 3.0 | 13.0 | 0.00 | 0.00 | 0.00 | 59 | 1005.7 |
| 20260505181031 | 85 | 120 | 4.0 | 13.0 | 0.00 | 0.00 | 0.00 | 59 | 1005.7 |
| 20260505180531 | 85 | 243 | 5.0 | 11.0 | 0.00 | 0.00 | 0.00 | 60 | 1005.7 |
| 20260505180044 | 86 | 221 | 3.0 | 12.0 | 0.00 | 0.00 | 0.00 | 60 | 1005.7 |
| 20260505175532 | 85 | 207 | 4.0 | 12.0 | 0.00 | 0.00 | 0.00 | 60 | 1005.7 |
| 20260505175032 | 85 | 186 | 2.0 | 11.0 | 0.00 | 0.00 | 0.00 | 61 | 1005.6 |
| 20260505174543 | 85 | 112 | 3.0 | 11.0 | 0.00 | 0.00 | 0.00 | 60 | 1005.6 |
| 20260505174031 | 84 | 270 | 4.0 | 11.0 | 0.00 | 0.00 | 0.00 | 62 | 1005.7 |
| 20260505173527 | 85 | 285 | 3.0 | 8.0 | 0.00 | 0.00 | 0.00 | 62 | 1005.7 |
| 20260505173045 | 84 | 171 | 3.0 | 8.0 | 0.00 | 0.00 | 0.00 | 62 | 1005.7 |
| 20260505172527 | 84 | 190 | 3.0 | 9.0 | 0.00 | 0.00 | 0.00 | 63 | 1005.8 |
| 20260505172028 | 84 | 178 | 3.0 | 10.0 | 0.00 | 0.00 | 0.00 | 63 | 1005.9 |
| 20260505171545 | 84 | 191 | 1.0 | 11.0 | 0.00 | 0.00 | 0.00 | 65 | 1005.8 |
| 20260505171032 | 83 | 262 | 2.0 | 11.0 | 0.00 | 0.00 | 0.00 | 65 | 1005.8 |
| 20260505170527 | 82 | 233 | 5.0 | 11.0 | 0.00 | 0.00 | 0.00 | 66 | 1005.9 |
| 20260505170043 | 82 | 217 | 4.0 | 9.0 | 0.00 | 0.00 | 0.00 | 66 | 1005.9 |
| 20260505165527 | 82 | 199 | 2.0 | 10.0 | 0.00 | 0.00 | 0.00 | 66 | 1005.9 |
| 20260505165031 | 82 | 235 | 4.0 | 10.0 | 0.00 | 0.00 | 0.00 | 67 | 1006.0 |
| 20260505164558 | 82 | 256 | 4.0 | 14.0 | 0.00 | 0.00 | 0.00 | 67 | 1006.0 |
| 20260505164033 | 82 | 164 | 4.0 | 14.0 | 0.00 | 0.00 | 0.00 | 67 | 1005.8 |
| 20260505163531 | 81 | 238 | 3.0 | 12.0 | 0.00 | 0.00 | 0.00 | 67 | 1005.8 |
| 20260505163049 | 81 | 82 | 4.0 | 15.0 | 0.00 | 0.00 | 0.00 | 68 | 1005.8 |
| 20260505162534 | 81 | 257 | 5.0 | 15.0 | 0.00 | 0.00 | 0.00 | 68 | 1005.6 |
| 20260505162031 | 81 | 226 | 3.0 | 11.0 | 0.00 | 0.00 | 0.00 | 69 | 1005.7 |
| 20260505161538 | 81 | 266 | 4.0 | 10.0 | 0.00 | 0.00 | 0.00 | 69 | 1005.8 |
| 20260505161031 | 81 | 238 | 3.0 | 9.0 | 0.00 | 0.00 | 0.00 | 69 | 1005.8 |
| 20260505160528 | 80 | 195 | 3.0 | 12.0 | 0.00 | 0.00 | 0.00 | 71 | 1005.8 |
| 20260505153043 | 78 | 165 | 3.0 | 10.0 | 0.00 | 0.00 | 0.00 | 73 | 1005.5 |
| 20260505152531 | 78 | 198 | 3.0 | 15.0 | 0.00 | 0.00 | 0.00 | 73 | 1005.6 |
| 20260505152031 | 78 | 224 | 2.0 | 15.0 | 0.00 | 0.00 | 0.00 | 74 | 1005.7 |
| 20260505151541 | 77 | 241 | 4.0 | 15.0 | 0.00 | 0.00 | 0.00 | 74 | 1005.6 |
| 20260505151033 | 77 | 195 | 3.0 | 9.0 | 0.00 | 0.00 | 0.00 | 75 | 1005.7 |
| 20260505150531 | 77 | 168 | 4.0 | 9.0 | 0.00 | 0.00 | 0.00 | 76 | 1005.8 |
| 20260505140531 | 74 | 240 | 4.0 | 12.0 | 0.00 | 0.00 | 0.00 | 81 | 1005.7 |
| 20260505130105 | 72 | 170 | 3.0 | 10.0 | 0.00 | 0.00 | 0.00 | 84 | 1005.4 |
| 20260505125030 | 72 | 210 | 4.0 | 10.0 | 0.00 | 0.00 | 0.00 | 84 | 1005.2 |
| 20260505124549 | 71 | 168 | 1.0 | 9.0 | 0.00 | 0.00 | 0.00 | 84 | 1005.3 |
| 20260505124031 | 71 | 199 | 2.0 | 9.0 | 0.00 | 0.00 | 0.00 | 84 | 1005.4 |
| 20260505123534 | 71 | 219 | 2.0 | 11.0 | 0.00 | 0.00 | 0.00 | 84 | 1005.4 |
| 20260505123047 | 71 | 184 | 3.0 | 11.0 | 0.00 | 0.00 | 0.00 | 84 | 1005.2 |
| 20260505122531 | 71 | 184 | 3.0 | 11.0 | 0.00 | 0.00 | 0.00 | 84 | 1005.1 |
| 20260505122031 | 71 | 161 | 2.0 | 11.0 | 0.00 | 0.00 | 0.00 | 84 | 1004.8 |
| 20260505121540 | 71 | 162 | 4.0 | 10.0 | 0.00 | 0.00 | 0.00 | 84 | 1004.8 |
| 20260505121031 | 71 | 176 | 4.0 | 10.0 | 0.00 | 0.00 | 0.00 | 84 | 1004.8 |
| 20260505120531 | 71 | 153 | 1.0 | 7.0 | 0.00 | 0.00 | 0.00 | 84 | 1004.8 |
| 20260505120058 | 71 | 208 | 3.0 | 11.0 | 0.00 | 0.00 | 0.00 | 84 | 1004.8 |
| 20260505115531 | 71 | 271 | 3.0 | 11.0 | 0.00 | 0.00 | 0.00 | 84 | 1004.9 |
| 20260505115028 | 71 | 140 | 3.0 | 11.0 | 0.00 | 0.00 | 0.00 | 84 | 1004.8 |
| 20260505114544 | 71 | 176 | 3.0 | 8.0 | 0.00 | 0.00 | 0.00 | 84 | 1004.8 |
| 20260505114031 | 71 | 252 | 3.0 | 8.0 | 0.00 | 0.00 | 0.00 | 84 | 1004.7 |
| 20260505113528 | 71 | 187 | 3.0 | 8.0 | 0.00 | 0.00 | 0.00 | 84 | 1004.7 |
| 20260505113050 | 71 | 175 | 3.0 | 12.0 | 0.00 | 0.00 | 0.00 | 83 | 1004.7 |
| 20260505112527 | 71 | 184 | 3.0 | 12.0 | 0.00 | 0.00 | 0.00 | 83 | 1004.7 |
| 20260505112027 | 71 | 181 | 4.0 | 12.0 | 0.00 | 0.00 | 0.00 | 83 | 1004.6 |
| 20260505111543 | 71 | 201 | 2.0 | 9.0 | 0.00 | 0.00 | 0.00 | 83 | 1004.6 |
| 20260505111033 | 72 | 143 | 3.0 | 10.0 | 0.00 | 0.00 | 0.00 | 83 | 1004.5 |
| 20260505110532 | 72 | 225 | 4.0 | 10.0 | 0.00 | 0.00 | 0.00 | 83 | 1004.7 |
| 20260505102029 | 72 | 174 | 2.0 | 11.0 | 0.00 | 0.00 | 0.00 | 82 | 1004.8 |
| 20260505101544 | 72 | 199 | 1.0 | 12.0 | 0.00 | 0.00 | 0.00 | 82 | 1004.8 |
| 20260505101028 | 72 | 212 | 3.0 | 12.0 | 0.00 | 0.00 | 0.00 | 82 | 1004.8 |
| 20260505100532 | 72 | 216 | 4.0 | 12.0 | 0.00 | 0.00 | 0.00 | 82 | 1004.9 |
| 20260505100044 | 72 | 164 | 2.0 | 8.0 | 0.00 | 0.00 | 0.00 | 82 | 1005.0 |
| 20260505095527 | 72 | 172 | 3.0 | 8.0 | 0.00 | 0.00 | 0.00 | 82 | 1004.9 |
| 20260505095027 | 72 | 169 | 4.0 | 8.0 | 0.00 | 0.00 | 0.00 | 82 | 1004.7 |
| 20260505094544 | 72 | 208 | 2.0 | 7.0 | 0.00 | 0.00 | 0.00 | 81 | 1004.9 |
| 20260505094027 | 72 | 163 | 2.0 | 7.0 | 0.00 | 0.00 | 0.00 | 81 | 1005.0 |
| 20260505093528 | 72 | 182 | 2.0 | 7.0 | 0.00 | 0.00 | 0.00 | 81 | 1004.8 |
| 20260505093043 | 72 | 162 | 2.0 | 7.0 | 0.00 | 0.00 | 0.00 | 81 | 1004.9 |
| 20260505092532 | 72 | 0 | 3.0 | 7.0 | 0.00 | 0.00 | 0.00 | 81 | 1005.1 |
| 20260505092032 | 72 | 183 | 2.0 | 8.0 | 0.00 | 0.00 | 0.00 | 81 | 1005.2 |
| 20260505091538 | 72 | 183 | 2.0 | 8.0 | 0.00 | 0.00 | 0.00 | 81 | 1005.1 |
| 20260505091031 | 72 | 196 | 4.0 | 8.0 | 0.00 | 0.00 | 0.00 | 81 | 1005.2 |
| 20260505090531 | 72 | 170 | 3.0 | 8.0 | 0.00 | 0.00 | 0.00 | 81 | 1005.2 |
| 20260505090047 | 72 | 195 | 4.0 | 11.0 | 0.00 | 0.00 | 0.00 | 81 | 1005.4 |
| 20260505085531 | 72 | 190 | 4.0 | 11.0 | 0.00 | 0.00 | 0.00 | 81 | 1005.3 |
| 20260505085028 | 72 | 240 | 4.0 | 11.0 | 0.00 | 0.00 | 0.00 | 81 | 1005.3 |
| 20260505084545 | 72 | 0 | 1.0 | 12.0 | 0.00 | 0.00 | 0.00 | 81 | 1005.3 |
| 20260505084027 | 72 | 191 | 1.0 | 12.0 | 0.00 | 0.00 | 0.00 | 80 | 1005.3 |
| 20260505083531 | 72 | 214 | 3.0 | 9.0 | 0.00 | 0.00 | 0.00 | 80 | 1005.4 |
| 20260505083045 | 72 | 205 | 2.0 | 5.0 | 0.00 | 0.00 | 0.00 | 80 | 1005.3 |
| 20260505082530 | 72 | 194 | 1.0 | 5.0 | 0.00 | 0.00 | 0.00 | 80 | 1005.2 |
| 20260505082030 | 72 | 135 | 2.0 | 7.0 | 0.00 | 0.00 | 0.00 | 80 | 1005.3 |
| 20260505081550 | 72 | 114 | 2.0 | 7.0 | 0.00 | 0.00 | 0.00 | 80 | 1005.4 |
| 20260505081031 | 72 | 176 | 1.0 | 6.0 | 0.00 | 0.00 | 0.00 | 80 | 1005.3 |
| 20260505080530 | 72 | 224 | 0.0 | 6.0 | 0.00 | 0.00 | 0.00 | 79 | 1005.3 |
| 20260505080047 | 72 | 0 | 0.0 | 5.0 | 0.00 | 0.00 | 0.00 | 79 | 1005.3 |
| 20260505075531 | 73 | 0 | 1.0 | 6.0 | 0.00 | 0.00 | 0.00 | 79 | 1005.5 |
| 20260505075032 | 73 | 231 | 2.0 | 6.0 | 0.00 | 0.00 | 0.00 | 79 | 1005.4 |
| 20260505074542 | 73 | 193 | 2.0 | 9.0 | 0.00 | 0.00 | 0.00 | 78 | 1005.5 |
| 20260505074031 | 73 | 172 | 3.0 | 9.0 | 0.00 | 0.00 | 0.00 | 78 | 1005.7 |
| 20260505073531 | 73 | 176 | 1.0 | 6.0 | 0.00 | 0.00 | 0.00 | 78 | 1005.8 |
| 20260505073049 | 73 | 160 | 1.0 | 9.0 | 0.00 | 0.00 | 0.00 | 78 | 1005.8 |
| 20260505072530 | 73 | 252 | 2.0 | 9.0 | 0.00 | 0.00 | 0.00 | 77 | 1006.0 |
| 20260505072030 | 73 | 230 | 2.0 | 9.0 | 0.00 | 0.00 | 0.00 | 77 | 1006.1 |
| 20260505071551 | 73 | 0 | 0.0 | 8.0 | 0.00 | 0.00 | 0.00 | 77 | 1006.2 |
| 20260505071031 | 73 | 185 | 2.0 | 10.0 | 0.00 | 0.00 | 0.00 | 76 | 1006.3 |
| 20260505070531 | 73 | 194 | 2.0 | 10.0 | 0.00 | 0.00 | 0.00 | 76 | 1006.4 |
| 20260505070043 | 74 | 173 | 2.0 | 6.0 | 0.00 | 0.00 | 0.00 | 76 | 1006.5 |
| 20260505065531 | 74 | 186 | 3.0 | 6.0 | 0.00 | 0.00 | 0.00 | 76 | 1006.5 |
| 20260505065030 | 74 | 280 | 1.0 | 5.0 | 0.00 | 0.00 | 0.00 | 75 | 1006.4 |
| 20260505064544 | 74 | 0 | 1.0 | 7.0 | 0.00 | 0.00 | 0.00 | 75 | 1006.6 |
| 20260505064030 | 74 | 0 | 2.0 | 7.0 | 0.00 | 0.00 | 0.00 | 75 | 1006.7 |
| 20260505063530 | 74 | 0 | 1.0 | 5.0 | 0.00 | 0.00 | 0.00 | 74 | 1006.6 |
| 20260505063041 | 74 | 181 | 1.0 | 5.0 | 0.00 | 0.00 | 0.00 | 74 | 1006.6 |
| 20260505062530 | 74 | 175 | 2.0 | 5.0 | 0.00 | 0.00 | 0.00 | 74 | 1006.6 |
| 20260505062030 | 74 | 214 | 1.0 | 5.0 | 0.00 | 0.00 | 0.00 | 74 | 1006.6 |
| 20260505061539 | 74 | 165 | 2.0 | 5.0 | 0.00 | 0.00 | 0.00 | 74 | 1006.6 |
| 20260505061030 | 74 | 0 | 0.0 | 4.0 | 0.00 | 0.00 | 0.00 | 73 | 1006.7 |
| 20260505060531 | 74 | 187 | 1.0 | 4.0 | 0.00 | 0.00 | 0.00 | 73 | 1006.6 |
| 20260505060039 | 74 | 228 | 1.0 | 5.0 | 0.00 | 0.00 | 0.00 | 73 | 1006.7 |
| 20260505055533 | 74 | 201 | 1.0 | 5.0 | 0.00 | 0.00 | 0.00 | 73 | 1006.6 |
| 20260505055031 | 74 | 209 | 0.0 | 4.0 | 0.00 | 0.00 | 0.00 | 72 | 1006.5 |
| 20260505054551 | 74 | 196 | 0.0 | 4.0 | 0.00 | 0.00 | 0.00 | 72 | 1006.6 |
| 20260505054031 | 74 | 0 | 1.0 | 5.0 | 0.00 | 0.00 | 0.00 | 72 | 1006.6 |
| 20260505053531 | 74 | 182 | 0.0 | 5.0 | 0.00 | 0.00 | 0.00 | 72 | 1006.6 |
| 20260505053056 | 74 | 0 | 0.0 | 6.0 | 0.00 | 0.00 | 0.00 | 71 | 1006.6 |
| 20260505052530 | 74 | 179 | 1.0 | 6.0 | 0.00 | 0.00 | 0.00 | 71 | 1006.7 |
| 20260505052030 | 74 | 82 | 1.0 | 5.0 | 0.00 | 0.00 | 0.00 | 71 | 1006.6 |
| 20260505051545 | 75 | 112 | 1.0 | 5.0 | 0.00 | 0.00 | 0.00 | 71 | 1006.7 |
| 20260505051032 | 75 | 0 | 1.0 | 5.0 | 0.00 | 0.00 | 0.00 | 70 | 1006.7 |
| 20260505050530 | 75 | 195 | 1.0 | 6.0 | 0.00 | 0.00 | 0.00 | 70 | 1006.9 |
| 20260505041539 | 75 | 179 | 2.0 | 11.0 | 0.00 | 0.00 | 0.00 | 69 | 1006.8 |
| 20260505041031 | 75 | 184 | 2.0 | 6.0 | 0.00 | 0.00 | 0.00 | 69 | 1007.0 |
| 20260505040533 | 75 | 0 | 0.0 | 5.0 | 0.00 | 0.00 | 0.00 | 69 | 1007.0 |
| 20260505040050 | 75 | 0 | 0.0 | 5.0 | 0.00 | 0.00 | 0.00 | 68 | 1007.0 |
| 20260505035534 | 75 | 140 | 1.0 | 10.0 | 0.00 | 0.00 | 0.00 | 68 | 1006.9 |
| 20260505035031 | 75 | 105 | 1.0 | 10.0 | 0.00 | 0.00 | 0.00 | 68 | 1006.9 |
| 20260505034543 | 75 | 133 | 2.0 | 10.0 | 0.00 | 0.00 | 0.00 | 68 | 1006.8 |
| 20260505034031 | 75 | 312 | 2.0 | 6.0 | 0.00 | 0.00 | 0.00 | 68 | 1006.8 |
| 20260505033531 | 75 | 142 | 2.0 | 6.0 | 0.00 | 0.00 | 0.00 | 68 | 1006.9 |
| 20260505033044 | 75 | 124 | 3.0 | 6.0 | 0.00 | 0.00 | 0.00 | 68 | 1006.7 |
| 20260505032531 | 75 | 286 | 1.0 | 6.0 | 0.00 | 0.00 | 0.00 | 68 | 1006.7 |
| 20260505032031 | 76 | 134 | 3.0 | 6.0 | 0.00 | 0.00 | 0.00 | 67 | 1006.8 |
| 20260505031539 | 76 | 136 | 2.0 | 5.0 | 0.00 | 0.00 | 0.00 | 67 | 1006.9 |
| 20260505031030 | 76 | 330 | 1.0 | 6.0 | 0.00 | 0.00 | 0.00 | 67 | 1007.0 |
| 20260505030531 | 76 | 212 | 2.0 | 6.0 | 0.00 | 0.00 | 0.00 | 67 | 1006.9 |
| 20260505030045 | 76 | 189 | 2.0 | 6.0 | 0.00 | 0.00 | 0.00 | 67 | 1006.9 |
| 20260505025533 | 76 | 163 | 1.0 | 5.0 | 0.00 | 0.00 | 0.00 | 66 | 1007.0 |
| 20260505025030 | 76 | 0 | 0.0 | 5.0 | 0.00 | 0.00 | 0.00 | 66 | 1007.0 |
| 20260505024545 | 76 | 188 | 0.0 | 5.0 | 0.00 | 0.00 | 0.00 | 66 | 1007.0 |